スワン彗星

P/2005 T4 ( SWAN )

English version
Home page
Updated on December 31, 2010

---------------------------------------------------------------------

・ プロフィール

発見日 2005年10月6日
発見光度 9等
発見者 R. D. Matson (Newport Coast, California), M. Mattiazzo (Wallaroo, South Australia)

・ 写真集

・ 軌道要素

Epoch 2005 Sept. 27.0 TT = JDT 2453640.5
T 2005 Oct. 10.53821 TT                                 MPC
q   0.6493991            (2000.0)            P               Q
n   0.03438660     Peri.   41.44465     +0.94407728     -0.29535699
a   9.3657652      Node    25.42183     -0.31017808     -0.94631791
e   0.9306625      Incl.  160.03602     +0.11183761     -0.13132655
P  28.7
From 28 observations 2005 Oct. 14-31, mean residual 0".6.

・ 星図

・ 光度変化

        m1 = 13 + 5 logΔ + 10 log r

---------------------------------------------------------------------

軌道要素はM.P.E.C. 2010-X76に掲載されたものです。
星図は StellaNavigator Ver.2.0 for Windows (アストロアーツ 編著 / アスキー出版局刊) で作成したものです。
光度グラフはComet for Windowsで作成したものです。

---------------------------------------------------------------------

Copyright(C) Seiichi Yoshida (comet@aerith.net). All rights reserved.